Regional Weather Roundup
Issued by NWS Cleveland, OH

Home | Current Version | Previous Version | Graphics & Text | Print | Product List | Glossary On
Versions: 1 2 3 4 5 6 7 8 9 10 11 12 13 14 15 16 17 18 19 20 21 22 23 24 25 26 27 28 29 30 31 32 33 34 35 36 37 38 39 40 41 42 43 44 45 46 47 48 49 50
000
ASUS41 KCLE 070300
RWRCLE
OHIO REGIONAL WEATHER ROUNDUP
NATIONAL WEATHER SERVICE WILMINGTON, OH
1100 PM EDT MON JUL 06 2015

NOTE: "FAIR" INDICATES FEW OR NO CLOUDS BELOW 12,000 FEET WITH NO
SIGNIFICANT WEATHER AND/OR OBSTRUCTIONS TO VISIBILITY.

OHZ001>008-015>018-024>027-034-035-043-044-070400-
   NORTHWEST OHIO

CITY           SKY/WX    TMP DP  RH WIND       PRES   REMARKS
DEFIANCE       CLOUDY    77  66  68 S8        29.95R
FINDLAY        PTCLDY    71  65  81 S9        29.96R
TOLEDO EXPRESS MOCLDY    73  65  75 S3        29.95R
TOLEDO EXEC    PTCLDY    74  63  68 S8        29.95R
LIMA           MOCLDY    71  65  81 S6        29.98R
$$

OHZ009>014-019>023-028>033-038-089-070400-
   NORTHEAST OHIO

CITY           SKY/WX    TMP DP  RH WIND       PRES   REMARKS
CLE-HOPKINS    PTCLDY    74  67  78 S8        29.99S
CLE-LAKEFRONT  CLEAR     77  67  71 SE9       29.96S
CUY CO. ARPT   PTCLDY    75  70  83 S6        29.99S
LORAIN-ELYRIA  CLEAR     68  64  87 CALM      29.99R
ASHTABULA      CLEAR     68  66  93 SE6       30.00R
AKRON-CANTON   PTCLDY    73  68  84 S7        30.02R
WOOSTER        NOT AVBL
MANSFIELD      CLEAR     68  61  78 S6        30.02R
YOUNGSTOWN     PTCLDY    69  67  93 SW3       30.02R
$$

OHZ042-051>053-060>062-070>072-077>081-070400-
  SOUTHWEST OHIO

CITY           SKY/WX    TMP DP  RH WIND       PRES   REMARKS
CINC-COVINGTON PTCLDY    76  68  76 S6        30.03R
CINC-LUNKEN    PTCLDY    71  69  93 SW3       30.02R
HAMILTON       PTCLDY    74  68  81 CALM      30.01R
DAYTON         NOT AVBL
WRIGHT-PAT AFB PTCLDY    74  65  73 S5        30.01R
DAYTON GENERAL PTCLDY    73  67  81 S6        30.01R
WILMINGTON     PTCLDY    71  65  81 S6        30.03R HAZE
$$

OHZ036-037-039>041-045>050-054>059-063>069-073>076-082>088-070400-
  CENTRAL AND SOUTHEAST OHIO

CITY           SKY/WX    TMP DP  RH WIND       PRES   REMARKS
COLUMBUS       PTCLDY    73  62  68 SE5       30.01R
OSU AIRPORT    CLEAR     73  62  68 S6        30.02R
BOLTON FIELD   NOT AVBL
RICKENBACK AFB NOT AVBL
NEWARK         CLEAR     65  63  93 CALM      30.02R
MARION         CLEAR     70  62  76 S8        30.00R
LANCASTER      CLEAR     65  61  87 S3        30.03R
ZANESVILLE     PTCLDY    72  67  84 S6        30.03R
NEW PHILLY     PTCLDY    69  69 100 SE3       30.03R
$$


USA.gov is the U.S. government's official web portal to all federal, state and local government web resources and services.